Weather History for South Bend, IN

Change the Weather History Date:

Saturday, December 4, 2010

  Actual Average Record
Temperature  
Mean Temperature 30 °F 32 °F  
Max Temperature 32 °F 39 °F 64 °F (1998)
Min Temperature 27 °F 26 °F 1 °F (1893)
Degree Days  
Heating Degree Days 35 33  
Month to date heating degree days 154 128  
Since 1 July heating degree days 1312 1397  
Cooling Degree Days 0 0  
Month to date cooling degree days 0 0  
Year to date cooling degree days 1022 773  
Moisture  
Dew Point 25 °F    
Average Humidity 82    
Maximum Humidity 100    
Minimum Humidity 63    
Precipitation  
Precipitation 0.07 in 0.09 in 1.20 in (1899)
Month to date precipitation 0.07 0.37  
Year to date precipitation 30.51 35.76  
Snow  
Snow 0.80 in 0.40 in 5.70 in (1991)
Month to date snowfall 2.3 1.5  
Since 1 July snowfall 3.6 6.7  
Snow Depth T in    
Sea Level Pressure  
Sea Level Pressure 30.09 in    
Wind  
Wind Speed 6 mph (ENE)    
Max Wind Speed 20 mph    
Max Gust Speed 24 mph    
Visibility 5 miles    
Events Snow    
T = Trace of Precipitation, MM = Missing Value Source: NWS Daily Summary

Daily Weather History Graph

Daily Weather History Graph

Search for Another Location

Airport:

Trip Planner

Search our weather history database for the weather conditions in past years. The results will help you decide how hot, cold, wet, or windy it might be!

Date:

Astronomy

Dec. 04, 2010 Rise Set
Actual Time 7:55 AM EST 5:14 PM EST
Civil Twilight 7:24 AM EST 5:46 PM EST
Nautical Twilight 6:50 AM EST 6:20 PM EST
Astronomical Twilight 6:16 AM EST 6:54 PM EST
Moon 6:52 AM EST (12/4) 4:16 PM EST (12/4)
Length of Visible Light 10h 21m
Length of Day
9h 19m
Waning Crescent, 1% of the Moon is Illuminated
Dec 4
Waning Crescent
Dec 5
New
Dec 13
First Quarter
Dec 21
Full
Dec 27
Last Quarter

Hourly Weather History & Observations

Time (EST) Temp. Windchill Dew Point Humidity Pressure Visibility Wind Dir Wind Speed Gust Speed Precip Events Conditions
12:54 AM 30.0 °F - 26.1 °F 85% 30.17 in 9.0 mi Calm Calm - N/A   Overcast
1:54 AM 30.0 °F 26.5 °F 25.0 °F 82% 30.16 in 8.0 mi ESE 3.5 mph - N/A   Overcast
2:54 AM 30.0 °F 25.2 °F 25.0 °F 82% 30.15 in 7.0 mi SE 4.6 mph - N/A   Overcast
3:31 AM 28.4 °F 21.2 °F 26.6 °F 93% 30.11 in 1.5 mi South 6.9 mph - 0.00 in Snow Light Snow
3:54 AM 28.0 °F 22.8 °F 27.0 °F 96% 30.13 in 1.8 mi SSE 4.6 mph - 0.00 in Snow Light Snow
4:09 AM 28.4 °F 23.3 °F 26.6 °F 93% 30.09 in 3.0 mi South 4.6 mph - 0.01 in Snow Light Snow
4:22 AM 28.4 °F 24.6 °F 26.6 °F 93% 30.09 in 3.0 mi SSE 3.5 mph - 0.01 in Snow Light Snow
4:54 AM 28.0 °F 22.8 °F 26.1 °F 92% 30.11 in 2.0 mi SE 4.6 mph - 0.01 in Snow Light Snow
5:09 AM 28.4 °F 22.2 °F 26.6 °F 93% 30.08 in 2.5 mi SE 5.8 mph - 0.00 in Snow Light Snow
5:54 AM 28.0 °F 22.8 °F 26.1 °F 92% 30.09 in 2.5 mi SE 4.6 mph - 0.00 in Snow Light Snow
6:13 AM 28.4 °F 24.6 °F 26.6 °F 93% 30.06 in 2.5 mi ESE 3.5 mph - 0.00 in Snow Light Snow
6:54 AM 28.0 °F 21.7 °F 25.0 °F 88% 30.08 in 2.5 mi SE 5.8 mph - 0.00 in Snow Light Snow
7:14 AM 26.6 °F 21.2 °F 26.6 °F 100% 30.05 in 2.0 mi ESE 4.6 mph - 0.00 in Snow Light Snow
7:54 AM 27.0 °F 23.0 °F 26.1 °F 96% 30.08 in 2.5 mi SE 3.5 mph - 0.01 in Snow Light Snow
8:07 AM 26.6 °F - 26.6 °F 100% 30.05 in 1.2 mi Calm Calm - 0.00 in Snow Light Snow
8:14 AM 28.4 °F - 26.6 °F 93% 30.05 in 1.0 mi Calm Calm - 0.00 in Snow Light Snow
8:16 AM 28.4 °F - 26.6 °F 93% 30.05 in 0.8 mi Calm Calm - 0.00 in Snow Light Snow
8:28 AM 28.4 °F - 26.6 °F 93% 30.06 in 1.0 mi Calm Calm - 0.01 in Snow Light Snow
8:34 AM 28.4 °F - 26.6 °F 93% 30.06 in 1.0 mi Calm Calm - 0.01 in Snow Light Snow
8:51 AM 26.6 °F 22.6 °F 26.6 °F 100% 30.06 in 1.0 mi SE 3.5 mph - 0.01 in Snow Light Snow
8:54 AM 27.0 °F 23.0 °F 26.1 °F 96% 30.09 in 1.0 mi SE 3.5 mph - 0.01 in Snow Light Snow
8:59 AM 26.6 °F 21.2 °F 26.6 °F 100% 30.06 in 0.8 mi ESE 4.6 mph - 0.00 in Snow Light Snow
9:54 AM 27.0 °F 23.0 °F 26.1 °F 96% 30.09 in 0.8 mi ESE 3.5 mph - 0.02 in Snow Light Snow
10:54 AM 28.0 °F - 26.1 °F 92% 30.10 in 0.8 mi Calm Calm - 0.01 in Snow Light Snow
11:22 AM 28.4 °F - 26.6 °F 93% 30.06 in 0.8 mi Calm Calm - 0.01 in Snow Light Snow
11:29 AM 28.4 °F - 26.6 °F 93% 30.06 in 1.0 mi Calm Calm - 0.01 in Snow Light Snow
11:42 AM 30.2 °F - 26.6 °F 86% 30.05 in 2.5 mi Calm Calm - 0.01 in Snow Light Snow
11:51 AM 28.4 °F - 26.6 °F 93% 30.05 in 1.8 mi Calm Calm - 0.01 in Snow Light Snow
11:54 AM 30.0 °F - 26.1 °F 85% 30.08 in 1.8 mi Calm Calm - 0.01 in Snow Light Snow
12:01 PM 30.2 °F - 26.6 °F 86% 30.05 in 2.5 mi Calm Calm - 0.00 in Snow Light Snow
12:16 PM 30.2 °F 25.4 °F 24.8 °F 80% 30.05 in 6.0 mi ENE 4.6 mph - 0.00 in   Haze
12:54 PM 30.0 °F 25.2 °F 24.1 °F 79% 30.06 in 8.0 mi NNE 4.6 mph - 0.00 in   Overcast
1:23 PM 30.2 °F 24.3 °F 24.8 °F 80% 30.03 in 7.0 mi North 5.8 mph - N/A   Overcast
1:52 PM 30.2 °F 23.4 °F 24.8 °F 80% 30.02 in 7.0 mi NNE 6.9 mph - N/A   Overcast
1:54 PM 30.9 °F 25.2 °F 24.1 °F 76% 30.05 in 7.0 mi NNE 5.8 mph - N/A   Overcast
2:22 PM 30.2 °F 21.3 °F 24.8 °F 80% 30.03 in 9.0 mi North 10.4 mph - N/A   Overcast
2:54 PM 32.0 °F 24.8 °F 23.0 °F 69% 30.06 in 10.0 mi North 8.1 mph - N/A   Overcast
3:31 PM 32.0 °F 23.6 °F 23.0 °F 69% 30.04 in 10.0 mi North 10.4 mph - N/A   Mostly Cloudy
3:54 PM 30.9 °F 22.2 °F 21.9 °F 69% 30.08 in 10.0 mi North 10.4 mph - N/A   Mostly Cloudy
4:54 PM 30.9 °F 22.8 °F 21.0 °F 67% 30.10 in 10.0 mi North 9.2 mph - N/A   Overcast
5:54 PM 30.0 °F 25.2 °F 21.0 °F 69% 30.12 in 10.0 mi North 4.6 mph - N/A   Overcast
6:54 PM 30.0 °F 22.4 °F 21.9 °F 72% 30.13 in 10.0 mi North 8.1 mph - N/A   Overcast
7:54 PM 30.0 °F 22.4 °F 21.0 °F 69% 30.14 in 10.0 mi North 8.1 mph - N/A   Overcast
8:54 PM 28.9 °F 22.8 °F 21.9 °F 75% 30.15 in 10.0 mi North 5.8 mph - N/A   Overcast
9:08 PM 30.2 °F 21.3 °F 21.2 °F 69% 30.12 in 10.0 mi North 10.4 mph - N/A   Overcast
9:54 PM 28.0 °F 17.5 °F 19.9 °F 72% 30.17 in 10.0 mi North 12.7 mph 23.0 mph N/A   Overcast
10:37 PM 28.4 °F 18.5 °F 19.4 °F 69% 30.14 in 10.0 mi North 11.5 mph 20.7 mph N/A   Overcast
10:54 PM 28.0 °F 18.6 °F 18.0 °F 66% 30.18 in 10.0 mi NNE 10.4 mph 19.6 mph N/A   Overcast
11:54 PM 27.0 °F 18.7 °F 18.0 °F 69% 30.19 in 10.0 mi NNE 8.1 mph - N/A   Overcast